Weather Roundup
Issued by NWS

Home | Current Version | Previous Version | Graphics & Text | Print | Product List | Glossary Off
Versions: 1 2 3 4 5 6 7 8 9 10 11 12 13 14 15 16 17 18 19 20 21 22 23 24 25 26 27 28 29 30 31 32 33 34 35 36 37 38 39 40 41 42 43 44 45 46 47 48 49 50

000
NZUS93 KARX 250659
HRRWXR

CURRENT HOURLY OBSERVATIONS ACROSS
MUCH OF THE UPPER MISSISSIPPI VALLEY
NATIONAL WEATHER SERVICE LA CROSSE WI
100 AM CST TUE NOV 25 2014


...SOUTHEAST MINNESOTA...


CITY           SKY/WX    TMP DP  RH WIND       PRES   REMARKS
ROCHESTER      FLURRIES  16  11  80 NW17      29.89R WCI   0
ROCHESTER/MAYO CLOUDY    17  10  75 W16G24    29.89R WCI   2
WINONA         CLOUDY    23  16  74 NW14      29.89R WCI  11
AUSTIN         FLURRIES  12   9  85 NW13      29.91R WCI  -3
ALBERT LEA     FAIR      12  10  92 NW7G16    29.93R WCI   2
DODGE CENTER   CLOUDY    14  10  85 NW14      29.89R WCI  -1
PRESTON        FLURRIES  16  11  82 NW13G21   29.88R WCI   2
OWATONNA       FLURRIES  12   9  85 NW12      29.93R WCI  -2
FARIBAULT      PTCLDY    12   9  85 W10       29.94R WCI  -1
$$

...ELSEWHERE IN MINNESOTA...


CITY           SKY/WX    TMP DP  RH WIND       PRES   REMARKS
MINNEAPOLIS    PTCLDY    14   8  77 NW13      29.94R WCI   0
INTNL FALLS    LGT SNOW   9   7  92 W5        29.87R FOG     WCI   0
DULUTH         NOT AVBL
RED WING       FLURRIES  19  12  73 NW10      29.91R WCI   8
REDWOOD FALLS  CLEAR     15   7  70 NW15G22   30.00R WCI   0
MANKATO        PTCLDY    12   5  73 NW13      29.96R WCI  -3
WORTHINGTON    CLEAR     12   7  79 NW12      30.00R WCI  -2
FAIRMONT       CLEAR     16   9  73 W17       29.97R WCI   0
$$

...SOUTHWEST WISCONSIN...


CITY           SKY/WX    TMP DP  RH WIND       PRES   REMARKS
LA CROSSE      CLOUDY    23  14  68 NW14      29.87R WCI  11
PRAIRIE DU CHI CLOUDY    19  12  74 W8        29.89R WCI   9
BOSCOBEL       CLOUDY    21  14  74 W8        29.88R WCI  11
LONE ROCK      NOT AVBL
PLATTEVILLE    CLOUDY    18  14  84 W15       29.85R WCI   4
FORT MC COY    FLURRIES  21  16  78 W9        29.84R WCI  11
VIROQUA        CLOUDY    19  18  97 W7        29.81R WCI  10
WIS DELLS      CLOUDY    22  18  85 W10       29.78R WCI  11
$$

...ELSEWHERE IN WISCONSIN...


CITY           SKY/WX    TMP DP  RH WIND       PRES   REMARKS
MILWAUKEE      LGT SNOW  23  18  81 W13       29.77R WCI  11
MADISON        CLOUDY    21  17  84 W9        29.80R WCI  11
GREEN BAY      LGT SNOW  26  22  84 MISG      29.70R FOG
EAU CLAIRE     NOT AVBL
BLACK RVR FLS  FLURRIES  22  15  75 NW8       29.82R WCI  12
MEDFORD        LGT SNOW  19  16  89 W9        29.72R WCI   8
WAUSAU         LGT SNOW  21  18  88 NW16      29.71R FOG     WCI   7
WIS RAPIDS     LGT SNOW  22  16  78 NW12      29.78R WCI  10
MARSHFIELD     LGT SNOW  21  16  81 NW13      29.76R WCI   9
RICE LAKE      FLURRIES  19  13  77 NW8G18    29.85R WCI   9
$$

...NORTHEAST IOWA...


CITY           SKY/WX    TMP DP  RH WIND       PRES   REMARKS
DECORAH        CLOUDY    18  12  79 NW6G14    29.87R WCI   9
MASON CITY     CLOUDY    14  10  84 NW17      29.96R WCI  -3
CHARLES CITY   FLURRIES  14   9  79 NW16      29.93R WCI  -2
OELWEIN        CLOUDY    16  10  79 NW15      29.91R WCI   1
$$

...ELSEWHERE IN IOWA...


CITY           SKY/WX    TMP DP  RH WIND       PRES   REMARKS
DES MOINES     CLEAR     24  15  68 NW17      30.02R WCI  11
IOWA CITY      NOT AVBL
FORT DODGE     CLEAR     18  10  73 NW8       30.01R WCI   7
$$

...NORTHERN ILLINOIS...


CITY           SKY/WX    TMP DP  RH WIND       PRES   REMARKS
CHICAGO-OHARE  FLURRIES  24  18  77 W16G26    29.83R WCI  11
CHICAGO-MIDWAY FLURRIES  27  21  78 W21G28    29.85R WCI  13
MOLINE         CLOUDY    22  14  71 W18G25    29.93R WCI   7
ROCKFORD       LGT SNOW  21  15  78 W13       29.87R WCI   9
PEORIA         CLOUDY    30  22  72 W14G22    29.93S WCI  19
$$

NOTE: "FAIR" INDICATES FEW OR NO CLOUDS BELOW 12,000 FEET WITH NO
SIGNIFICANT WEATHER AND/OR OBSTRUCTIONS TO VISIBILITY. WIND
SPEEDS ARE IN MILES-PER-HOUR.



USA.gov is the U.S. government's official web portal to all federal, state and local government web resources and services.